DROR 1

Last updated on Thu Oct 30 2025 00:02:53 GMT+0000 (Coordinated Universal Time)

1 64784U 25148A 25302.32755696 -.00000024 00000+0 00000+0 0 9999 2 64784 0.0102 55.3546 0000908 240.3502 216.1455 1.00270715 989
UTC large
Height (km)
Speed (km/s)
/
Latitude / Longitude
Inclination (degrees)
Orbital Period (minutes)
Azimuth
Elevation
Range (km)
Doppler Factor

Next 0 passes for location: London (51.5072 / 0.1276)

Sorry there are no passes over London.